Bridgeport, West Virginia, United States (26330)
Lat: 39.29N, Lon: 80.26W
Wx Zone: WVZ031
Local Info
Past Weather Observations for Today

NOTE: This archive is for the closest National Weather Service station to Bridgeport. Information may differ from the station used for current weather conditions.

Click here for Long-term Archive

Time Weather Temperature Dewpoint Humidity Pressure Winds Precip Visibility
17:53
Partly Cloudy
19°F / -7°C -8°F / -22°C 29% 30.39 in
(1029 mb)
NW 12.7 mph
(NW 20 kph)
- 10SM
16:53
Mostly Cloudy
23°F / -5°C -8°F / -22°C 25% 30.36 in
(1028 mb)
NW 16.1 mph
(NW 26 kph)
- 10SM
15:53
Mostly Cloudy
16°F / -9°C -8°F / -22°C 34% 30.36 in
(1028 mb)
W 13.8 mph
(W 22 kph)
- 10SM
14:53
Overcast
19°F / -7°C -6°F / -21°C 32% 30.36 in
(1028 mb)
WNW 11.5 mph
(WNW 19 kph)
- 10SM
13:53
Overcast
21°F / -6°C -4°F / -20°C 32% 30.36 in
(1028 mb)
NW 13.8 mph
(NW 22 kph)
- 10SM
12:53
Overcast
18°F / -8°C -4°F / -20°C 38% 30.36 in
(1028 mb)
NW 15 mph
(NW 24 kph)
- 10SM
11:53
Overcast
16°F / -9°C -4°F / -20°C 41% 30.36 in
(1028 mb)
W 11.5 mph
(W 19 kph)
0.00 in
(0.00 mm)
9SM
11:46
Overcast
Light Snow
12°F / -11°C -2°F / -19°C 52% 30.36 in
(1028 mb)
WNW 13.8 mph
(WNW 22 kph)
0.00 in
(0.00 mm)
5SM
10:53
Overcast
10°F / -12°C -4°F / -20°C 52% 30.36 in
(1028 mb)
W 13.8 mph
(W 22 kph)
- 10SM
09:53
Mostly Cloudy
9°F / -13°C -6°F / -21°C 51% 30.36 in
(1028 mb)
NW 17.3 mph
(NW 28 kph)
- 10SM
08:53
Overcast
10°F / -12°C -6°F / -21°C 47% 30.33 in
(1027 mb)
NW 13.8 mph
(NW 22 kph)
0.00 in
(0.00 mm)
10SM
08:43
Overcast
9°F / -13°C -6°F / -21°C 51% 30.33 in
(1027 mb)
NW 15 mph
(NW 24 kph)
0.00 in
(0.00 mm)
10SM
08:36
Overcast
Hazy
9°F / -13°C -2°F / -19°C 61% 30.3 in
(1026 mb)
NW 17.3 mph
(NW 28 kph)
0.00 in
(0.00 mm)
6SM
08:28
Overcast
Light Snow
10°F / -12°C -2°F / -19°C 56% 30.3 in
(1026 mb)
NW 13.8 mph
(NW 22 kph)
0.00 in
(0.00 mm)
2 1/2SM
08:08
Overcast
Light Snow
9°F / -13°C 1°F / -17°C 72% 30.3 in
(1026 mb)
NW 15 mph
(NW 24 kph)
0.00 in
(0.00 mm)
3SM
07:53
Overcast
10°F / -12°C °F / -18°C 61% 30.3 in
(1026 mb)
NW 13.8 mph
(NW 22 kph)
0.00 in
(0.00 mm)
7SM
07:03
Overcast
10°F / -12°C 1°F / -17°C 67% 30.27 in
(1025 mb)
NW 15 mph
(NW 24 kph)
0.00 in
(0.00 mm)
8SM
06:53
Overcast
Light Snow
10°F / -12°C 3°F / -16°C 72% 30.24 in
(1024 mb)
NW 15 mph
(NW 24 kph)
0.00 in
(0.00 mm)
6SM
06:34
Overcast
Light Snow
12°F / -11°C 3°F / -16°C 67% 30.24 in
(1024 mb)
NW 10.4 mph
(NW 17 kph)
0.00 in
(0.00 mm)
4SM
05:53
Overcast
Light Snow
12°F / -11°C 5°F / -15°C 73% 30.21 in
(1023 mb)
W 13.8 mph
(W 22 kph)
0.00 in
(0.00 mm)
6SM
05:36
Overcast
Light Snow
12°F / -11°C 5°F / -15°C 73% 30.21 in
(1023 mb)
W 12.7 mph
(W 20 kph)
0.00 in
(0.00 mm)
4SM
05:09
Overcast
Light Snow
12°F / -11°C 7°F / -14°C 79% 30.21 in
(1023 mb)
W 8.1 mph
(W 13 kph)
0.00 in
(0.00 mm)
2SM
05:00
Overcast
Light Snow
12°F / -11°C 7°F / -14°C 79% 30.21 in
(1023 mb)
W 10.4 mph
(W 17 kph)
0.00 in
(0.00 mm)
1 1/2SM
04:53
Overcast
Light Snow
12°F / -11°C 7°F / -14°C 79% 30.18 in
(1022 mb)
W 12.7 mph
(W 20 kph)
0.00 in
(0.00 mm)
2SM
04:51
Overcast
Light Snow
12°F / -11°C 7°F / -14°C 79% 30.18 in
(1022 mb)
WNW 16.1 mph
(WNW 26 kph)
0.00 in
(0.00 mm)
2 1/2SM
03:53
Overcast
Light Snow
14°F / -10°C 3°F / -16°C 62% 30.18 in
(1022 mb)
WNW 17.3 mph
(WNW 28 kph)
0.00 in
(0.00 mm)
9SM
02:53
Mostly Cloudy
14°F / -10°C 3°F / -16°C 62% 30.15 in
(1021 mb)
WNW 12.7 mph
(WNW 20 kph)
0.00 in
(0.00 mm)
9SM
02:25
Partly Cloudy
16°F / -9°C 3°F / -16°C 57% 30.12 in
(1020 mb)
WNW 16.1 mph
(WNW 26 kph)
0.00 in
(0.00 mm)
9SM
01:53
Overcast
Light Snow
16°F / -9°C 7°F / -14°C 67% 30.12 in
(1020 mb)
NW 11.5 mph
(NW 19 kph)
0.00 in
(0.00 mm)
4SM
00:53
Clear
16°F / -9°C 3°F / -16°C 57% 30.09 in
(1019 mb)
WNW 16.1 mph
(WNW 26 kph)
0.00 in
(0.00 mm)
9SM
00:08
Mostly Cloudy
Unknown Precip
18°F / -8°C 7°F / -14°C 62% 30.06 in
(1018 mb)
WNW 19.6 mph
(WNW 32 kph)
0.00 in
(0.00 mm)
3SM
Time Weather Temperature Dewpoint Humidity Pressure Winds Precip Visibility


Weather for websites

WeatherForYou.com, LLC is not responsible for any damages or problems caused by this service. Current weather conditions are obtained from the closest station including government and personal stations which may have varying degrees of accuracy. Weather forecasts are derived from the NOAA NDFD. Like all things, this site belongs to Jesus Christ... He just trusts us to maintain it. If you have any questions or comments email webmaster@weatherforyou.com

Copyright © 2016, WeatherForYou.com LLC. All rights reserved.